This demonstration page uses our WeatherBlox Daily Observations layout. Learn more.

41.55636, -103.73856

Hourly Observations for December 27, 2016

Temp ( °F °C ) Dew Point ( °F °C ) Humidity (%) Winds ( mph kmh ) Pressure ( in mb ) Visibility ( mi km ) Precip ( " mm )
12:53 am 00:53 Clear 31 -0.6 11 -11.7 43 43 W 14 22 30.22 1024 10 16.0934 0 0
1:53 am 01:53 Clear 28 -2.2 10 -12.2 47 47 W 8 13 30.23 1024 10 16.0934 0 0
2:53 am 02:53 Clear 29 -1.7 9 -12.8 43 43 W 13 20 30.22 1023 10 16.0934 0 0
3:53 am 03:53 Clear 25 -3.9 9 -12.8 50 50 WNW 8 13 30.21 1023 10 16.0934 0 0
4:53 am 04:53 Clear 24 -4.4 9 -12.8 52 52 WNW 13 20 30.2 1023 10 16.0934 0 0
5:53 am 05:53 Clear 29 -1.7 8 -13.3 41 41 WNW 13 20 30.17 1022 10 16.0934 0 0
6:53 am 06:53 Clear 21 -6.1 8 -13.3 57 57 SSE 3 6 30.23 1024 10 16.0934 0 0
7:53 am 07:53 Sunny 24 -4.4 7 -13.9 48 48 W 5 7 30.22 1024 10 16.0934 0 0
8:53 am 08:53 Sunny 27 -2.8 8 -13.3 45 45 Calm 30.22 1023 10 16.0934 0 0
9:53 am 09:53 Sunny 31 -0.6 13 -10.6 47 47 ESE 3 6 30.18 1022 10 16.0934 0 0
10:53 am 10:53 Sunny 37 2.8 14 -10 39 39 Calm 30.11 1020 10 16.0934 0 0
11:53 am 11:53 Sunny 38 3.3 17 -8.3 43 43 S 8 13 30.05 1018 10 16.0934 0 0
12:53 pm 12:53 Sunny 38 3.3 24 -4.4 57 57 ESE 7 11 29.97 1015 10 16.0934 0 0
1:53 pm 13:53 Sunny 43 6.1 19 -7.2 38 38 SE 5 7 29.93 1013 10 16.0934 0 0
2:53 pm 14:53 Sunny 41 5 24 -4.4 51 51 S 5 7 29.93 1013 10 16.0934 0 0
3:53 pm 15:53 Sunny 39 3.9 23 -5 53 53 SSW 9 15 29.94 1014 10 16.0934 0 0
4:53 pm 16:53 Partly Cloudy 36 2.2 23 -5 59 59 N 8 13 29.96 1015 10 16.0934 0 0
5:53 pm 17:53 Clear 45 7.2 14 -10 29 29 W 10 17 29.92 1013 10 16.0934 0 0
6:53 pm 18:53 Mostly Clear 39 3.9 15 -9.4 38 38 WNW 7 11 29.97 1015 10 16.0934 0 0
7:53 pm 19:53 Clear 45 7.2 15 -9.4 30 30 W 18 30 29.91 1013 10 16.0934 0 0
8:53 pm 20:53 Clear 44 6.7 17 -8.3 34 34 W 13 20 29.9 1013 10 16.0934 0 0
9:53 pm 21:53 Clear 41 5 19 -7.2 41 41 WNW 9 15 29.91 1013 10 16.0934 0 0
10:53 pm 22:53 Mostly Clear 39 3.9 20 -6.7 46 46 WSW 8 13 29.91 1013 10 16.0934 0 0
11:53 pm 23:53 Clear 42 5.6 23 -5 47 47 WNW 13 20 29.88 1012 10 16.0934 0 0

Powered by AerisWeather